Location: The Saddle
(36.8333°N, 80.3417°W)
Time: 09:07:07
(UTC-04:00)

A-11 Canister half - Pass Details

Date: 05 June 2024
Orbit: 1515 x 1685 km, 47.2° (Epoch: 17 June)

Event Time Altitude Azimuth Distance (km) Brightness Sun altitude
Rises 23:16:13 0° 235° (SW) 4,893 11.6 -23.7°
Reaches altitude 10° 23:19:24 10° 236° (SW) 3,890 11.1 -24.0°
Maximum altitude 23:29:22 88° 326° (NW) 1,615 9.0 -25.0°
Drops below altitude 10° 23:39:01 10° 57° (ENE) 3,765 11.1 -25.9°
Sets 23:42:02 0° 58° (ENE) 4,730 11.6 -26.1°
